Weather History for Medford, WI

Change the Weather History Date:

Tuesday, August 19, 2014

  Actual Average Record
Temperature  
Mean Temperature 65 °F -  
Max Temperature 71 °F 76 °F 91 °F (1976)
Min Temperature 58 °F 54 °F 35 °F (2004)
Growing Degree Days 15 (Base 50)    
Moisture  
Dew Point 62 °F    
Average Humidity 93    
Maximum Humidity 100    
Minimum Humidity 77    
Precipitation  
Precipitation 0.18 in - - ()
Sea Level Pressure  
Sea Level Pressure 29.72 in    
Wind  
Wind Speed 4 mph (West)    
Max Wind Speed 14 mph    
Max Gust Speed 20 mph    
Visibility 7 miles    
Events Fog , Rain , Thunderstorm    
Averages and records for this station are not official NWS values.
T = Trace of Precipitation, MM = Missing Value Source: NWS Daily Summary

Daily Weather History Graph

Daily Weather History Graph

Search for Another Location

Airport:

Trip Planner

Search our weather history database for the weather conditions in past years. The results will help you decide how hot, cold, wet, or windy it might be!

Date:

Astronomy

Aug. 19, 2014 Rise Set
Actual Time 6:07 AM CDT 8:01 PM CDT
Civil Twilight 5:35 AM CDT 8:32 PM CDT
Nautical Twilight 4:57 AM CDT 9:11 PM CDT
Astronomical Twilight 4:14 AM CDT 9:53 PM CDT
Moon 12:55 AM CDT (8/19) 4:02 PM CDT (8/19)
Length of Visible Light 14h 56m
Length of Day
13h 53m
Waning Crescent, 29% of the Moon is Illuminated
Aug 19
Waning Crescent
Aug 25
New
Sep 2
First Quarter
Sep 8
Full
Sep 15
Last Quarter

Hourly Weather History & Observations

Time (CDT) Temp. Dew Point Humidity Pressure Visibility Wind Dir Wind Speed Gust Speed Precip Events Conditions
12:15 AM 60.1 °F 59.9 °F 99% 29.70 in 7.0 mi Calm Calm - 0.01 in Rain , Thunderstorm Rain
12:35 AM 60.1 °F 59.9 °F 99% 29.70 in 3.0 mi Calm Calm - 0.05 in Rain Heavy Rain
12:55 AM 60.1 °F 59.9 °F 99% 29.69 in 10.0 mi East 3.5 mph - 0.06 in Rain Light Rain
1:15 AM 60.1 °F 59.9 °F 99% 29.68 in 10.0 mi Calm Calm - 0.01 in Rain Light Rain
1:35 AM 60.3 °F 60.1 °F 99% 29.67 in 7.0 mi SSE 5.8 mph - 0.01 in Rain Light Rain
1:55 AM 60.1 °F 59.9 °F 99% 29.66 in 10.0 mi SSE 6.9 mph - 0.01 in   Overcast
2:15 AM 60.1 °F 59.9 °F 99% 29.66 in 7.0 mi South 5.8 mph - N/A   Overcast
2:35 AM 60.3 °F 60.1 °F 99% 29.65 in 10.0 mi South 4.6 mph - N/A   Overcast
2:55 AM 60.4 °F 60.3 °F 99% 29.66 in 10.0 mi Calm Calm - N/A   Overcast
3:15 AM 60.8 °F 60.6 °F 99% 29.66 in 7.0 mi Calm Calm - N/A   Overcast
3:35 AM 61.0 °F 60.8 °F 99% 29.65 in 0.2 mi South 3.5 mph - N/A Fog Fog
3:55 AM 61.3 °F 61.3 °F 100% 29.65 in 0.2 mi SSW 4.6 mph - N/A Fog Fog
4:15 AM 61.7 °F 61.7 °F 100% 29.65 in 0.2 mi Calm Calm - N/A Fog Fog
4:35 AM 61.7 °F 61.7 °F 100% 29.65 in 0.2 mi SSW 3.5 mph - N/A Fog Fog
4:55 AM 62.1 °F 62.1 °F 100% 29.66 in 0.5 mi SSW 3.5 mph - N/A Fog Fog
5:15 AM 62.1 °F 62.1 °F 100% 29.66 in 0.5 mi West 4.6 mph - N/A Fog Fog
5:35 AM 62.1 °F 62.1 °F 100% 29.66 in 0.5 mi West 5.8 mph - N/A Fog Fog
5:55 AM 62.1 °F 62.1 °F 100% 29.68 in 0.5 mi West 3.5 mph - N/A Fog Fog
6:15 AM 62.1 °F 62.1 °F 100% 29.68 in 0.8 mi West 4.6 mph - N/A   Overcast
6:35 AM 62.1 °F 62.1 °F 100% 29.68 in 1.0 mi Calm Calm - N/A   Overcast
6:55 AM 62.1 °F 62.1 °F 100% 29.68 in 0.5 mi Calm Calm - N/A Fog Fog
7:15 AM 62.6 °F 62.6 °F 100% 29.68 in 0.5 mi Calm Calm - N/A Fog Fog
7:35 AM 62.6 °F 62.6 °F 100% 29.68 in 0.5 mi WNW 4.6 mph - N/A Fog Fog
7:55 AM 62.8 °F 62.8 °F 100% 29.68 in 1.8 mi Calm Calm - N/A   Overcast
8:15 AM 63.1 °F 63.1 °F 100% 29.68 in 3.0 mi WNW 5.8 mph - N/A   Overcast
8:35 AM 63.9 °F 63.7 °F 99% 29.68 in 10.0 mi West 6.9 mph - N/A   Overcast
8:55 AM 63.7 °F 62.8 °F 97% 29.68 in 10.0 mi NW 5.8 mph - N/A   Scattered Clouds
9:15 AM 63.5 °F 62.1 °F 95% 29.69 in 10.0 mi WNW 5.8 mph - N/A   Mostly Cloudy
9:35 AM 63.7 °F 62.2 °F 95% 29.70 in 10.0 mi West 6.9 mph - N/A   Overcast
9:55 AM 63.0 °F 61.2 °F 94% 29.71 in 10.0 mi NW 5.8 mph - N/A   Overcast
10:15 AM 63.1 °F 61.3 °F 94% 29.71 in 10.0 mi NW 6.9 mph - N/A   Overcast
10:35 AM 64.0 °F 61.9 °F 93% 29.72 in 10.0 mi West 8.1 mph - N/A   Overcast
10:55 AM 64.0 °F 60.8 °F 89% 29.73 in 10.0 mi NW 6.9 mph - N/A   Overcast
11:15 AM 63.9 °F 60.8 °F 90% 29.73 in 10.0 mi WNW 8.1 mph - N/A   Overcast
11:35 AM 64.6 °F 61.7 °F 90% 29.72 in 10.0 mi WNW 3.5 mph - N/A   Overcast
11:55 AM 66.4 °F 61.5 °F 84% 29.72 in 10.0 mi West 4.6 mph - N/A   Overcast
12:15 PM 65.3 °F 61.3 °F 87% 29.72 in 10.0 mi West 6.9 mph - N/A   Overcast
12:35 PM 67.1 °F 61.7 °F 83% 29.72 in 10.0 mi WNW 4.6 mph - N/A   Overcast
12:55 PM 66.7 °F 62.2 °F 85% 29.73 in 10.0 mi West 5.8 mph - N/A   Overcast
1:15 PM 69.4 °F 63.5 °F 81% 29.72 in 10.0 mi West 9.2 mph - N/A   Mostly Cloudy
1:35 PM 70.3 °F 63.5 °F 79% 29.72 in 10.0 mi SW 8.1 mph - N/A   Scattered Clouds
1:55 PM 69.4 °F 62.8 °F 79% 29.72 in 10.0 mi West 6.9 mph - N/A   Mostly Cloudy
2:15 PM 69.3 °F 62.8 °F 80% 29.72 in 10.0 mi West 10.4 mph 19.6 mph N/A   Overcast
2:35 PM 71.1 °F 63.7 °F 77% 29.72 in 10.0 mi WNW 9.2 mph - N/A   Mostly Cloudy
2:55 PM 68.7 °F 63.0 °F 82% 29.72 in 7.0 mi West 9.2 mph - 0.01 in Rain Light Rain
3:15 PM 68.5 °F 63.5 °F 84% 29.72 in 10.0 mi West 13.8 mph 18.4 mph N/A   Overcast
3:35 PM 68.2 °F 62.4 °F 82% 29.72 in 10.0 mi West 10.4 mph - N/A   Overcast
4:15 PM 69.8 °F 62.2 °F 77% 29.72 in 10.0 mi West 8.1 mph 16.1 mph N/A   Overcast
4:35 PM 69.3 °F 62.6 °F 79% 29.73 in 10.0 mi West 11.5 mph - N/A   Overcast
4:55 PM 68.5 °F 62.6 °F 81% 29.74 in 10.0 mi West 9.2 mph - N/A   Overcast
5:15 PM 69.4 °F 64.2 °F 83% 29.74 in 7.0 mi NNW 13.8 mph - N/A   Overcast
5:35 PM 67.1 °F 63.7 °F 89% 29.75 in 10.0 mi NW 5.8 mph - 0.01 in   Light Drizzle
5:55 PM 67.6 °F 63.9 °F 88% 29.75 in 10.0 mi NW 4.6 mph - 0.01 in   Overcast
6:15 PM 68.0 °F 63.7 °F 86% 29.75 in 10.0 mi NNW 8.1 mph - N/A   Mostly Cloudy
6:35 PM 65.8 °F 62.6 °F 89% 29.75 in 10.0 mi North 4.6 mph - N/A Rain Light Rain
6:55 PM 66.2 °F 62.6 °F 88% 29.76 in 10.0 mi North 4.6 mph - N/A   Overcast
7:15 PM 66.2 °F 63.5 °F 91% 29.76 in 10.0 mi North 6.9 mph - N/A Rain Rain
7:35 PM 64.6 °F 62.6 °F 93% 29.77 in 7.0 mi Calm Calm - 0.04 in Rain Rain
7:55 PM 63.9 °F 62.6 °F 96% 29.77 in 5.0 mi WNW 3.5 mph - 0.07 in Rain Light Rain
8:15 PM 63.7 °F 62.6 °F 96% 29.77 in 10.0 mi Calm Calm - N/A   Overcast
8:35 PM 63.7 °F 62.8 °F 97% 29.78 in 7.0 mi NNW 4.6 mph - N/A Rain Rain
8:55 PM 63.5 °F 62.6 °F 97% 29.78 in 10.0 mi Calm Calm - 0.01 in Rain Rain
9:15 PM 63.5 °F 62.6 °F 97% 29.79 in 10.0 mi WNW 3.5 mph - N/A   Overcast
9:35 PM 63.0 °F 62.6 °F 99% 29.79 in 10.0 mi Calm Calm - 0.01 in   Mostly Cloudy
9:55 PM 62.6 °F 62.1 °F 98% 29.79 in 7.0 mi Calm Calm - 0.01 in   Overcast
10:15 PM 61.2 °F 61.0 °F 99% 29.79 in 4.0 mi Calm Calm - N/A   Mostly Cloudy
10:35 PM 61.2 °F 61.0 °F 99% 29.79 in 0.2 mi Calm Calm - N/A Fog Fog
10:55 PM 61.0 °F 60.8 °F 99% 29.80 in 0.5 mi Calm Calm - N/A Fog Fog
11:15 PM 59.5 °F 59.4 °F 99% 29.80 in 0.2 mi Calm Calm - N/A Fog Fog
11:35 PM 59.5 °F 59.5 °F 100% 29.80 in 0.5 mi Calm Calm - N/A Fog Fog
11:55 PM 58.1 °F 57.9 °F 99% 29.80 in 0.2 mi Calm Calm - N/A Fog Fog